UAL338 MMSD-KDEN

Flight info

Callsign UAL338
Flight time N/A
Altitude 35000
Route UKUXA1A UKUXA DCT LERIV UT9 BECON/N0460F340 DCT LAYEN/N0454F350 DCT ABQ/N0454F360 DCT GNDLA TBARR4
Aircraft A321/M-SDE3FGHIRWY/LB1

Departure

Time N/A
Airport Los Cabos International Airport (MMSD)

Arrival

Time 2026-05-03 23:11
Airport Denver International Airport (KDEN)
Time Latitude Longitude Altitude Speed Heading
2026-05-03 22:29 36.23663 -107.38674 36024 ft 439 kts 346°
2026-05-03 22:29 36.29723 -107.39051 36022 ft 440 kts 346°
2026-05-03 22:30 36.35833 -107.39423 36020 ft 440 kts 346°
2026-05-03 22:30 36.41950 -107.39796 36009 ft 440 kts 345°
2026-05-03 22:31 36.48067 -107.40176 36025 ft 441 kts 346°
2026-05-03 22:31 36.54161 -107.40553 36014 ft 441 kts 346°
2026-05-03 22:32 36.60300 -107.40926 36013 ft 442 kts 346°
2026-05-03 22:32 36.66442 -107.41306 36042 ft 442 kts 346°
2026-05-03 22:33 36.72685 -107.40728 36013 ft 463 kts
2026-05-03 22:33 36.78995 -107.39014 36016 ft 465 kts
2026-05-03 22:34 36.85272 -107.37261 36015 ft 465 kts
2026-05-03 22:34 36.91588 -107.35508 36035 ft 465 kts
2026-05-03 22:35 36.97905 -107.33771 36017 ft 464 kts
2026-05-03 22:35 37.04217 -107.32033 36034 ft 465 kts
2026-05-03 22:36 37.10499 -107.30304 36053 ft 465 kts
2026-05-03 22:36 37.16828 -107.28558 36056 ft 466 kts
2026-05-03 22:37 37.23100 -107.26310 36063 ft 485 kts 18°
2026-05-03 22:37 37.29046 -107.22165 36171 ft 489 kts 20°
2026-05-03 22:38 37.34921 -107.17964 36174 ft 490 kts 20°
2026-05-03 22:38 37.40854 -107.13745 36188 ft 490 kts 20°
2026-05-03 22:39 37.46787 -107.09531 36170 ft 490 kts 20°
2026-05-03 22:39 37.52722 -107.05302 36152 ft 490 kts 20°
2026-05-03 22:40 37.58640 -107.01075 36144 ft 488 kts 20°
2026-05-03 22:40 37.64503 -106.96880 36130 ft 488 kts 20°
2026-05-03 22:41 37.70386 -106.92673 36105 ft 484 kts 20°
2026-05-03 22:41 37.76237 -106.88473 36104 ft 484 kts 20°
2026-05-03 22:42 37.82045 -106.84296 36100 ft 484 kts 20°
2026-05-03 22:42 37.87898 -106.80083 36107 ft 484 kts 20°
2026-05-03 22:43 37.93764 -106.75850 36104 ft 486 kts 21°
2026-05-03 22:43 37.99632 -106.71604 36099 ft 485 kts 21°
2026-05-03 22:44 38.05489 -106.67354 36102 ft 484 kts 21°
2026-05-03 22:44 38.11293 -106.63148 36088 ft 483 kts 21°
2026-05-03 22:45 38.17122 -106.58913 36091 ft 482 kts 22°
2026-05-03 22:45 38.22934 -106.54684 36069 ft 481 kts 22°
2026-05-03 22:46 38.28729 -106.50453 36061 ft 480 kts 22°
2026-05-03 22:46 38.34483 -106.46242 36028 ft 480 kts 21°
2026-05-03 22:47 38.40276 -106.42004 36033 ft 480 kts 22°
2026-05-03 22:47 38.46067 -106.37762 36068 ft 480 kts 23°
2026-05-03 22:48 38.51846 -106.33509 36053 ft 478 kts 23°
2026-05-03 22:48 38.57572 -106.29290 36074 ft 479 kts 22°
2026-05-03 22:49 38.63313 -106.24950 36063 ft 483 kts 28°
2026-05-03 22:49 38.65950 -106.22250 35942 ft 489 kts 38°
2026-05-03 22:49 38.68292 -106.19047 35345 ft 496 kts 45°
2026-05-03 22:49 38.70510 -106.15687 34799 ft 493 kts 45°
2026-05-03 22:50 38.72704 -106.12320 34229 ft 492 kts 46°
2026-05-03 22:50 38.74879 -106.08963 33068 ft 488 kts 46°
2026-05-03 22:50 38.77007 -106.05675 32040 ft 480 kts 46°
2026-05-03 22:50 38.79095 -106.02443 31348 ft 464 kts 46°
2026-05-03 22:51 38.81139 -105.99290 30471 ft 455 kts 46°
2026-05-03 22:51 38.83147 -105.96205 29478 ft 446 kts 46°
2026-05-03 22:51 38.85103 -105.93197 28648 ft 431 kts 46°
2026-05-03 22:51 38.87020 -105.90247 28343 ft 431 kts 46°
2026-05-03 22:52 38.88968 -105.87260 28098 ft 444 kts 46°
2026-05-03 22:52 38.90957 -105.84197 27823 ft 448 kts 47°
2026-05-03 22:52 38.92948 -105.81107 27324 ft 448 kts 47°
2026-05-03 22:52 38.94894 -105.78064 26731 ft 446 kts 47°
2026-05-03 22:53 38.96851 -105.74994 26246 ft 442 kts 48°
2026-05-03 22:53 38.98787 -105.71950 25674 ft 440 kts 48°
2026-05-03 22:53 39.00711 -105.68931 25270 ft 434 kts 48°
2026-05-03 22:53 39.02603 -105.65969 24552 ft 424 kts 47°
2026-05-03 22:54 39.04463 -105.63077 24225 ft 419 kts 48°
2026-05-03 22:54 39.06327 -105.60188 23805 ft 418 kts 48°
2026-05-03 22:54 39.08183 -105.57313 23468 ft 419 kts 48°
2026-05-03 22:54 39.10037 -105.54431 22991 ft 416 kts 48°
2026-05-03 22:55 39.11844 -105.51616 22607 ft 410 kts 48°
2026-05-03 22:55 39.13635 -105.48816 22381 ft 401 kts 48°
2026-05-03 22:55 39.15397 -105.46063 21945 ft 397 kts 49°
2026-05-03 22:55 39.17135 -105.43331 21341 ft 390 kts 49°
2026-05-03 22:56 39.18842 -105.40627 20608 ft 389 kts 49°
2026-05-03 22:56 39.20530 -105.37937 20134 ft 386 kts 49°
2026-05-03 22:56 39.22207 -105.35257 19750 ft 381 kts 49°
2026-05-03 22:56 39.23864 -105.32611 19299 ft 378 kts 50°
2026-05-03 22:57 39.25491 -105.30018 18894 ft 375 kts 50°
2026-05-03 22:57 39.27079 -105.27425 18776 ft 363 kts 54°
2026-05-03 22:57 39.28266 -105.24626 18503 ft 349 kts 67°
2026-05-03 22:57 39.28932 -105.21650 17795 ft 342 kts 81°
2026-05-03 22:58 39.29259 -105.18667 17415 ft 335 kts 81°
2026-05-03 22:58 39.29600 -105.15686 17022 ft 335 kts 81°
2026-05-03 22:58 39.29949 -105.12720 16630 ft 334 kts 81°
2026-05-03 22:58 39.30302 -105.09764 16240 ft 333 kts 81°
2026-05-03 22:59 39.30653 -105.06807 15839 ft 333 kts 81°
2026-05-03 22:59 39.30998 -105.03862 15453 ft 331 kts 81°
2026-05-03 22:59 39.31337 -105.00972 15066 ft 329 kts 80°
2026-05-03 22:59 39.31750 -104.98071 14609 ft 330 kts 77°
2026-05-03 23:00 39.32260 -104.95213 14370 ft 323 kts 75°
2026-05-03 23:00 39.32800 -104.92441 14226 ft 313 kts 74°
2026-05-03 23:00 39.33332 -104.89755 14084 ft 304 kts 74°
2026-05-03 23:00 39.33855 -104.87153 13934 ft 295 kts 72°
2026-05-03 23:01 39.34449 -104.84630 13621 ft 293 kts 70°
2026-05-03 23:01 39.35092 -104.82148 13327 ft 289 kts 69°
2026-05-03 23:01 39.35958 -104.79845 13054 ft 281 kts 52°
2026-05-03 23:01 39.37267 -104.78075 12833 ft 275 kts 35°
2026-05-03 23:02 39.38892 -104.76811 12714 ft 273 kts 26°
2026-05-03 23:02 39.40555 -104.75643 12531 ft 271 kts 25°
2026-05-03 23:02 39.42202 -104.74469 12341 ft 270 kts 26°
2026-05-03 23:02 39.43841 -104.73294 12154 ft 268 kts 25°
2026-05-03 23:03 39.45468 -104.72127 11970 ft 267 kts 26°
2026-05-03 23:03 39.47092 -104.70968 11785 ft 266 kts 26°
2026-05-03 23:03 39.48711 -104.69814 11600 ft 265 kts 26°
2026-05-03 23:03 39.50317 -104.68667 11373 ft 262 kts 27°
2026-05-03 23:04 39.51855 -104.67564 11193 ft 240 kts 26°
2026-05-03 23:04 39.53285 -104.66724 11015 ft 213 kts 11°
2026-05-03 23:04 39.54690 -104.66441 10767 ft 200 kts 359°
2026-05-03 23:04 39.56034 -104.66380 10547 ft 190 kts 355°
2026-05-03 23:05 39.57326 -104.66358 10302 ft 182 kts 355°
2026-05-03 23:05 39.58579 -104.66343 10066 ft 180 kts 356°
2026-05-03 23:05 39.59801 -104.66328 9869 ft 168 kts 354°
2026-05-03 23:05 39.60941 -104.66314 9637 ft 162 kts 354°
2026-05-03 23:06 39.62061 -104.66301 9424 ft 160 kts 355°
2026-05-03 23:06 39.64291 -104.66276 9002 ft 159 kts 355°
2026-05-03 23:06 39.65402 -104.66263 8789 ft 160 kts 356°
2026-05-03 23:07 39.66508 -104.66250 8584 ft 159 kts 355°
2026-05-03 23:07 39.67596 -104.66236 8377 ft 157 kts 355°
2026-05-03 23:07 39.68693 -104.66224 8167 ft 158 kts 355°
2026-05-03 23:07 39.69790 -104.66211 7969 ft 157 kts 354°
2026-05-03 23:08 39.70885 -104.66198 7762 ft 158 kts 356°
2026-05-03 23:08 39.71981 -104.66185 7573 ft 156 kts 356°
2026-05-03 23:08 39.73073 -104.66172 7370 ft 157 kts 355°
2026-05-03 23:08 39.74156 -104.66158 7160 ft 155 kts 356°
2026-05-03 23:09 39.75235 -104.66146 6972 ft 155 kts 356°
2026-05-03 23:09 39.76312 -104.66133 6775 ft 156 kts 354°
2026-05-03 23:09 39.77370 -104.66120 6587 ft 154 kts 357°
2026-05-03 23:09 39.78456 -104.66108 6417 ft 157 kts 360°
2026-05-03 23:10 39.79542 -104.66095 6193 ft 157 kts 356°
2026-05-03 23:10 39.80621 -104.66082 5950 ft 155 kts 353°
2026-05-03 23:10 39.81699 -104.66075 5767 ft 158 kts 355°
2026-05-03 23:10 39.82794 -104.66031 5470 ft 157 kts 357°
2026-05-03 23:11 39.83874 -104.66027 5372 ft 151 kts 354°
2026-05-03 23:11 39.84800 -104.66037 5365 ft 109 kts
2026-05-03 23:11 39.85410 -104.66031 5364 ft 71 kts
2026-05-03 23:11 39.85651 -104.66042 5366 ft 19 kts 327°
2026-05-03 23:12 39.85675 -104.66145 5366 ft 4 kts 275°
2026-05-03 23:12 39.85675 -104.66151 5366 ft 1 kts 274°
2026-05-03 23:12 39.85675 -104.66171 5366 ft 3 kts 271°
2026-05-03 23:12 39.85676 -104.66208 5365 ft 5 kts 271°
2026-05-03 23:13 39.85669 -104.66243 5365 ft 2 kts 204°
2026-05-03 23:13 39.85614 -104.66234 5366 ft 14 kts 175°
2026-05-03 23:13 39.85551 -104.66253 5364 ft 3 kts 280°
2026-05-03 23:13 39.85571 -104.66312 5364 ft 11 kts 283°
2026-05-03 23:14 39.85575 -104.66417 5363 ft 12 kts 272°
2026-05-03 23:14 39.85605 -104.66498 5365 ft 8 kts 356°
2026-05-03 23:14 39.85687 -104.66498 5364 ft 12 kts 351°
2026-05-03 23:14 39.85707 -104.66588 5366 ft 12 kts 265°
2026-05-03 23:15 39.85705 -104.66712 5363 ft 17 kts 272°
2026-05-03 23:15 39.85708 -104.66833 5366 ft 9 kts 275°
2026-05-03 23:15 39.85754 -104.66893 5364 ft 10 kts 316°
2026-05-03 23:15 39.85779 -104.66909 5366 ft 2 kts 351°
2026-05-03 23:16 39.85794 -104.66912 5363 ft 3 kts 353°
2026-05-03 23:16 39.85807 -104.66911 5364 ft 1 kts
2026-05-03 23:16 39.85808 -104.66911 5366 ft 0 kts
2026-05-03 23:18 39.85801 -104.66911 5366 ft 0 kts